Kissimmee, FL

9:11 AM EST on December 08, 2019 (GMT -0500)
Kissimmee Municipal

Weather History for KISM - September, 2019

Change the Weather History Date:

Wednesday, September 18, 2019

  Actual Average Record
Temperature  
Mean Temperature 82 °F -  
Max Temperature 90 °F 89 °F 96 °F (2004)
Min Temperature 75 °F 70 °F 65 °F (1961)
Cooling Degree Days 18    
Growing Degree Days 32 (Base 50)    
Moisture  
Dew Point 73 °F    
Average Humidity 80    
Maximum Humidity 94    
Minimum Humidity 54    
Precipitation  
Precipitation 0.08 in - - ()
Sea Level Pressure  
Sea Level Pressure 29.98 in    
Wind  
Wind Speed 4 mph (NNE)    
Max Wind Speed 12 mph    
Max Gust Speed -    
Visibility 9 miles    
Events Rain , Thunderstorm    
Averages and records for this station are not official NWS values.
T = Trace of Precipitation, MM = Missing Value Source: NWS Daily Summary

Daily Weather History Graph

Daily Weather History Graph

Search for Another Location

Airport or City:

Astronomy

Sep. 18, 2019 Rise Set
Actual Time 7:12 AM EDT 7:27 PM EDT
Civil Twilight 6:48 AM EDT 7:50 PM EDT
Nautical Twilight 6:21 AM EDT 8:18 PM EDT
Astronomical Twilight 5:53 AM EDT 8:45 PM EDT
Moon 10:20 PM EDT (9/18) 10:55 AM EDT (9/18)
Length of Visible Light 13h 02m
Length of Day
12h 15m
Waning Gibbous, 82% of the Moon is Illuminated
Sep 18
Waning Gibbous
Sep 21
Last Quarter
Sep 28
New
Oct 5
First Quarter
Oct 13
Full

Hourly Weather History & Observations

Time (EDT) Temp. Heat Index Dew Point Humidity Pressure Visibility Wind Dir Wind Speed Gust Speed Precip Events Conditions
12:56 AM 75.9 °F - 71.1 °F 85% 29.97 in 10.0 mi Calm Calm - N/A   Clear
1:56 AM 78.1 °F - 72.0 °F 81% 29.96 in 10.0 mi Calm Calm - N/A   Clear
2:56 AM 75.0 °F - 72.0 °F 90% 29.96 in 10.0 mi NNW 3.5 mph - N/A   Clear
3:56 AM 75.9 °F - 73.0 °F 91% 29.94 in 10.0 mi Calm Calm - N/A   Clear
4:56 AM 75.0 °F - 73.0 °F 94% 29.95 in 10.0 mi Calm Calm - N/A   Clear
5:56 AM 75.0 °F - 73.0 °F 94% 29.96 in 10.0 mi NW 3.5 mph - N/A   Mostly Cloudy
6:56 AM 75.0 °F - 73.0 °F 94% 29.98 in 10.0 mi Calm Calm - N/A   Scattered Clouds
7:56 AM 75.9 °F - 73.9 °F 94% 30.00 in 10.0 mi NNW 3.5 mph - N/A   Clear
8:56 AM 81.0 °F 86.7 °F 75.0 °F 82% 30.01 in 10.0 mi North 4.6 mph - N/A   Partly Cloudy
9:56 AM 82.9 °F 90.2 °F 75.0 °F 77% 30.01 in 10.0 mi NE 5.8 mph - N/A   Partly Cloudy
10:56 AM 84.9 °F 92.1 °F 73.9 °F 69% 30.01 in 10.0 mi NNE 4.6 mph - N/A   Clear
11:56 AM 88.0 °F 96.5 °F 73.9 °F 63% 30.01 in 10.0 mi NE 5.8 mph - N/A   Partly Cloudy
12:56 PM 87.1 °F 93.6 °F 72.0 °F 61% 29.99 in 10.0 mi NE 6.9 mph - N/A   Scattered Clouds
1:56 PM 89.1 °F 96.0 °F 72.0 °F 57% 29.98 in 10.0 mi NE 6.9 mph - N/A   Scattered Clouds
2:46 PM 89.6 °F 96.2 °F 71.6 °F 55% 29.97 in 10.0 mi ENE 10.4 mph - N/A Thunderstorm Mostly Cloudy
2:56 PM 90.0 °F 96.4 °F 71.1 °F 54% 29.97 in 10.0 mi ENE 6.9 mph - N/A Thunderstorm Scattered Clouds
3:07 PM 89.6 °F 96.2 °F 71.6 °F 55% 29.97 in 10.0 mi East 8.1 mph - N/A   Scattered Clouds
3:56 PM 84.9 °F 91.4 °F 73.0 °F 67% 29.96 in 10.0 mi East 11.5 mph - N/A   Mostly Cloudy
4:21 PM 80.6 °F 86.2 °F 75.2 °F 84% 29.97 in 2.5 mi ENE 6.9 mph - N/A Rain , Thunderstorm Heavy Rain
4:29 PM 78.8 °F - 73.4 °F 83% 29.97 in 1.8 mi West 6.9 mph - 0.06 in Rain , Thunderstorm Rain
4:31 PM 78.8 °F - 73.4 °F 83% 29.97 in 2.5 mi West 6.9 mph - 0.06 in Rain , Thunderstorm Heavy Thunderstorms and Rain
4:37 PM 78.8 °F - 73.4 °F 83% 29.97 in 7.0 mi WNW 4.6 mph - 0.06 in Rain , Thunderstorm Thunderstorms and Rain
4:56 PM 77.0 °F - 75.0 °F 94% 29.96 in 7.0 mi NNW 4.6 mph - 0.08 in Rain , Thunderstorm Light Thunderstorms and Rain
5:08 PM 78.8 °F - 75.2 °F 89% 29.96 in 10.0 mi WNW 5.8 mph - 0.00 in Rain Light Rain
5:18 PM 78.8 °F - 75.2 °F 89% 29.96 in 10.0 mi North 3.5 mph - N/A Rain , Thunderstorm Light Rain
5:30 PM 80.6 °F 86.2 °F 75.2 °F 84% 29.96 in 10.0 mi NE 4.6 mph - 0.00 in   Mostly Cloudy
5:56 PM 82.0 °F 89.4 °F 75.9 °F 82% 29.96 in 10.0 mi Variable 3.5 mph - 0.00 in   Scattered Clouds
6:56 PM 81.0 °F 86.2 °F 73.9 °F 79% 29.98 in 10.0 mi ENE 8.1 mph - N/A   Mostly Cloudy
7:56 PM 80.1 °F 84.5 °F 73.9 °F 81% 29.99 in 10.0 mi NE 4.6 mph - N/A   Scattered Clouds
8:56 PM 79.0 °F - 73.0 °F 82% 30.01 in 10.0 mi ENE 5.8 mph - N/A   Clear
9:56 PM 78.1 °F - 73.0 °F 84% 30.01 in 10.0 mi ENE 6.9 mph - N/A   Partly Cloudy
10:56 PM 78.1 °F - 71.1 °F 79% 30.03 in 10.0 mi ENE 6.9 mph - N/A   Scattered Clouds
11:56 PM 75.9 °F - 71.1 °F 85% 30.04 in 10.0 mi East 8.1 mph - N/A   Partly Cloudy